Dewpoint
1 -2 -4 -4 -2 -1 1 3 6 6 7 9 7 8 4 4 4 2 3 4 5 5 5 6 6 6 5 5 5 4 3 3 7 7 8 8 8 8 8 9 8 6 6
-1 -0 -2 -5 -9 -11 -12 -10 -3 1 5 8 8 8 4 1 2 2 2 3 4 5 5 5 6 6 5 5 5 5 4 3 9 11 9 11 9 8 8 10 11 6 5
-1 0 1 -1 -3 -6 -8 -9 -7 -3 2 6 7 7 2 -0 0 2 1 2 3 4 5 5 5 5 5 5 5 5 4 3 9 13 12 12 11 10 8 8 11 11 6
2 1 2 2 1 -1 -4 -6 -6 -5 -1 2 4 3 1 -0 0 1 0 2 3 3 4 4 4 4 4 4 3 4 5 4 5 12 13 12 13 11 10 8 9 9 7
4 2 3 4 4 2 -1 -3 -3 -3 -2 -0 1 1 1 1 1 2 1 2 3 3 3 4 3 4 3 3 3 3 4 5 5 9 12 13 12 10 11 11 9 9 8
4 3 5 6 6 4 2 1 -0 -1 -0 1 1 2 2 3 4 4 4 4 4 5 5 5 5 5 5 6 6 5 4 4 5 6 11 11 12 12 11 10 8 9 10
3 5 7 7 7 6 5 5 3 2 2 3 3 4 4 4 5 5 6 6 7 7 7 8 8 8 9 9 9 9 9 8 5 4 7 12 12 13 12 11 11 8 9
4 7 7 8 8 7 7 7 6 6 5 5 5 5 6 6 7 8 8 8 9 9 10 10 10 11 11 11 11 11 11 11 10 9 6 9 11 12 12 12 11 11 8
6 7 8 8 9 8 8 7 7 8 8 8 8 8 9 9 9 10 10 10 11 12 12 12 13 13 12 12 12 11 12 11 11 11 11 10 9 12 12 12 12 11 10
13 10 8 8 9 8 8 8 8 9 9 9 9 10 10 10 11 11 11 12 12 12 12 12 12 13 13 13 12 12 12 12 12 11 11 11 11 11 11 12 12 12 12
14 14 9 8 8 8 8 9 9 9 10 10 10 10 11 11 12 12 12 12 12 12 11 10 10 11 11 11 11 11 11 12 11 11 11 11 11 11 12 12 12 13 13
14 12 9 8 8 8 9 9 10 10 10 10 11 11 12 12 12 11 10 10 10 10 8 8 6 8 9 10 11 12 11 11 11 12 11 11 11 11 11 12 13 12 12
13 11 9 8 9 9 9 10 10 10 11 11 12 12 12 11 11 10 8 9 9 8 7 6 5 5 7 8 9 10 10 10 11 12 11 10 10 11 12 12 12 12 12
13 11 9 10 10 10 10 10 11 10 10 9 8 8 9 9 8 8 8 5 5 5 4 2 -0 0 0 0 -0 1 3 4 4 6 8 8 9 11 11 11 11 11 11
13 13 11 11 11 11 11 11 10 8 6 4 2 5 6 5 7 7 7 7 6 2 -2 -4 -7 -10 -11 -12 -13 -13 -12 -10 -7 -5 -2 1 3 4 6 6 6 9 10
13 14 14 14 13 12 11 10 8 7 6 2 -1 1 6 6 5 5 5 5 -1 -5 -11 -14 -15 -15 -15 -15 -14 -15 -15 -15 -12 -12 -11 -9 -7 -4 0 4 4 9 9
14 14 13 14 14 12 11 10 9 7 4 -0 -1 2 5 4 4 2 -2 -4 -8 -13 -15 -13 -13 -13 -13 -13 -14 -14 -14 -13 -12 -10 -7 -5 -3 -1 1 4 4 8 8
14 14 13 14 13 13 12 11 11 9 6 1 2 5 3 2 1 -2 -4 -9 -13 -14 -12 -12 -12 -13 -13 -14 -15 -16 -16 -13 -11 -5 -1 0 1 4 6 5 5 5 6
14 14 14 13 13 13 12 12 11 9 5 1 -1 2 1 -1 -3 -5 -11 -13 -13 -11 -11 -11 -12 -12 -13 -14 -16 -17 -13 -4 -1 2 4 5 5 5 4 4 2 1 2
13 13 13 13 12 12 12 11 10 8 4 1 -0 -0 -1 -3 -6 -11 -12 -12 -11 -10 -10 -10 -11 -11 -11 -14 -12 -7 -5 3 7 6 5 5 4 3 1 -0 -2 -3 -3
14 13 13 12 12 12 12 11 9 5 1 -0 -2 -4 -6 -9 -11 -11 -11 -10 -9 -9 -9 -9 -10 -11 -13 -14 -1 2 4 6 5 4 4 3 2 1 1 -0 -2 -2 -2
13 14 13 13 12 13 11 9 5 2 0 -1 -2 -7 -10 -10 -10 -9 -9 -9 -9 -9 -8 -9 -9 -11 -12 -14 -0 3 3 4 4 2 1 -0 -1 -1 -2 -3 -2 -1 -1
13 13 13 12 10 9 8 5 3 2 0 -1 -2 -6 -8 -8 -8 -7 -8 -8 -8 -8 -8 -8 -9 -10 -11 -13 -15 -6 2 2 0 -2 -2 -2 -2 -2 -2 -2 -2 -2 -2
12 12 11 10 9 8 6 5 3 1 -0 -2 -3 -6 -7 -7 -7 -7 -7 -8 -8 -8 -8 -8 -8 -9 -12 -15 -15 -16 -13 -3 0 -1 -3 -3 -3 -2 -2 -2 -2 -2 -3
11 11 10 9 8 7 6 5 2 1 -0 -1 -3 -6 -8 -9 -8 -8 -7 -8 -8 -8 -7 -7 -8 -10 -13 -15 -16 -16 -16 -11 -7 -6 -5 -7 -6 -5 -4 -3 -3 -3 -3
10 10 9 8 7 7 5 4 2 2 2 1 -1 -4 -8 -8 -8 -7 -7 -8 -9 -8 -8 -8 -9 -11 -14 -17 -18 -18 -16 -10 -7 -7 -7 -13 -10 -3 -3 -4 -4 -4 -5
Wind_Speed
31 27 25 23 23 22 22 21 21 19 18 18 18 16 14 13 12 12 11 10 9 7 7 6 6 6 6 7 8 8 8 9 9 8 9 8 7 6 5 6 6 7 8
35 30 26 24 23 22 21 21 20 20 19 18 17 15 12 12 12 11 10 9 9 8 6 5 5 4 4 5 6 6 6 7 9 10 10 10 9 6 4 4 4 6 5
31 30 27 24 22 21 21 21 20 19 18 17 16 15 12 11 10 9 9 8 7 6 6 5 4 3 3 3 4 5 4 5 7 8 7 5 8 6 5 2 2 2 3
29 29 27 24 21 20 19 19 19 18 18 17 16 14 12 11 10 9 7 7 6 5 4 3 2 1 1 2 2 3 3 2 4 5 5 3 2 4 5 5 2 1 1
29 28 26 23 21 20 19 18 18 18 17 16 15 14 11 10 9 8 6 6 5 4 3 2 2 1 1 2 2 1 1 1 1 2 2 1 1 1 2 5 5 3 2
29 27 25 23 21 19 19 18 17 16 16 16 14 13 11 10 9 8 6 5 4 4 3 3 2 2 3 3 3 2 2 2 3 3 2 6 4 3 4 5 5 5 4
30 28 26 23 21 19 18 17 16 16 16 15 13 12 11 10 8 7 6 5 5 4 4 4 5 5 4 5 6 6 5 4 5 5 4 4 3 6 6 4 5 7 7
30 28 25 23 22 20 18 17 16 15 15 15 13 12 11 9 9 8 7 6 6 6 6 6 6 7 7 7 8 8 8 8 8 8 7 8 5 8 10 9 8 7 9
26 26 25 24 23 20 18 17 16 15 14 13 13 12 11 10 9 8 7 7 7 7 7 7 6 6 7 7 8 9 8 9 10 10 10 8 9 7 9 11 10 9 10
23 22 26 25 24 22 20 18 17 15 15 14 12 11 11 9 8 8 8 8 8 7 7 7 8 7 7 7 9 7 6 6 8 9 11 10 10 12 12 11 10 11 12
23 20 28 27 25 23 21 20 18 16 14 13 12 12 11 10 9 8 8 9 10 9 11 10 10 10 9 10 9 6 7 10 9 8 8 10 9 12 14 14 13 12 12
26 26 29 27 25 23 22 20 19 18 16 16 15 14 13 11 9 10 11 12 11 10 11 10 10 10 10 10 9 8 9 10 10 8 6 7 8 10 12 11 13 14 15
26 30 31 28 26 25 23 22 21 20 19 18 17 14 13 13 11 12 13 12 10 9 10 9 10 10 11 11 12 12 11 13 13 14 15 15 12 13 13 12 11 11 13
29 30 30 28 27 26 24 24 23 22 21 20 18 17 16 15 13 15 14 8 8 8 9 9 8 8 9 9 9 10 12 13 13 13 14 15 16 17 17 17 15 13 13
27 25 25 26 27 27 27 26 25 24 21 19 18 18 16 15 14 13 12 9 9 8 7 6 6 5 6 7 7 7 8 8 9 11 12 12 12 13 14 17 17 15 16
28 28 27 26 25 26 27 27 26 22 21 20 19 18 18 17 15 13 12 11 10 8 6 5 4 4 5 6 8 9 9 9 8 10 11 11 10 11 11 11 12 7 6
31 29 28 30 28 26 25 26 25 22 20 19 19 18 18 18 17 14 14 13 10 8 6 5 4 5 4 5 6 7 7 7 9 10 9 7 7 8 9 11 7 6 6
34 34 31 34 34 29 26 25 23 20 18 18 20 20 20 19 16 15 14 12 10 9 8 6 4 4 4 5 6 6 6 7 7 6 4 4 7 7 6 7 9 12 13
38 38 38 36 36 32 29 26 24 21 20 19 20 21 20 18 17 16 15 13 11 9 6 5 4 3 3 4 4 3 4 5 1 1 1 2 3 7 11 13 12 13 14
45 43 39 38 37 36 33 31 27 25 23 20 19 20 20 19 18 17 16 14 12 8 6 5 3 2 4 4 3 3 5 7 10 5 2 1 4 9 10 9 10 11 10
51 48 44 41 38 39 39 36 32 29 25 21 19 19 20 19 19 17 16 14 11 8 6 4 3 1 2 4 7 11 13 12 8 7 5 3 4 8 11 14 17 15 14
54 52 48 44 39 39 37 33 29 27 24 20 19 20 21 20 18 17 15 13 10 8 7 5 3 1 2 4 12 17 10 13 11 9 6 4 1 5 10 13 12 14 14
56 55 51 44 37 35 32 29 27 24 23 21 19 20 20 19 18 16 14 12 10 8 6 4 3 2 1 3 7 9 8 6 12 8 5 2 1 3 6 8 10 11 13
59 55 47 39 34 30 28 28 29 30 27 20 20 21 20 19 18 16 13 12 10 7 6 5 5 4 3 3 5 7 7 8 9 8 7 3 2 1 3 7 8 10 12
57 50 41 36 30 27 25 26 27 25 18 18 21 22 22 21 20 17 15 13 10 9 8 7 6 5 4 4 5 6 7 8 9 8 7 7 2 1 4 6 9 10 13
48 43 36 29 25 23 24 26 25 22 24 23 22 22 22 22 21 20 17 14 11 10 9 8 6 6 5 5 5 6 8 10 9 7 6 3 4 6 5 4 7 10 13
Wind_Direction
171 161 156 158 156 156 158 160 160 159 155 150 150 149 144 143 142 143 147 152 151 144 132 122 115 103 88 76 72 68 67 65 65 82 90 88 80 73 78 68 93 75 85
166 161 158 157 154 154 154 156 157 158 156 154 153 155 148 145 146 147 148 150 151 149 140 130 120 108 93 84 86 83 81 80 83 88 99 80 76 67 57 52 55 62 81
167 162 162 161 157 152 150 151 153 154 153 156 157 157 151 148 146 145 145 146 149 148 144 143 135 122 97 78 87 87 72 75 86 75 90 77 75 65 52 38 10 64 66
174 167 165 164 158 153 150 150 150 150 155 159 159 157 156 153 150 148 149 150 150 145 142 146 142 131 69 51 58 81 92 78 87 88 68 34 72 57 50 30 17 315 344
175 170 168 166 163 158 154 152 153 153 155 160 161 157 161 158 157 155 159 164 164 160 164 180 195 247 340 0 356 16 97 173 126 109 58 66 151 75 14 5 347 312 292
173 173 172 170 167 162 160 159 160 156 160 161 164 163 165 168 171 169 176 185 191 197 199 227 268 299 309 313 312 319 307 268 229 221 240 298 265 226 330 333 336 312 286
174 175 177 172 169 169 167 165 164 164 166 163 169 169 174 179 185 189 195 208 217 236 250 265 278 285 287 293 300 299 292 283 267 239 239 262 242 233 280 297 313 317 292
181 178 179 175 174 174 173 171 172 176 173 170 177 181 186 190 196 203 210 221 240 251 260 267 273 280 286 281 278 280 279 278 269 263 252 235 266 248 253 278 278 293 296
182 184 182 180 179 178 179 177 184 185 181 180 186 190 195 201 209 220 230 240 241 252 260 267 275 275 267 270 267 265 271 272 276 269 264 255 260 267 249 262 273 279 296
177 190 191 186 183 183 184 185 188 191 192 189 193 199 206 213 218 225 224 225 232 231 231 233 240 247 253 257 265 281 275 270 270 273 263 255 256 272 258 260 273 282 288
183 199 195 191 187 186 188 189 187 192 198 197 201 207 212 215 213 216 214 220 225 231 242 251 255 260 263 268 274 270 270 276 281 277 273 268 255 252 263 263 268 269 280
190 191 194 195 190 188 189 192 189 192 198 200 202 205 212 216 213 228 225 230 235 244 256 265 271 271 270 267 265 265 272 276 283 288 299 293 292 285 280 281 273 271 272
194 189 192 195 191 190 190 193 193 196 202 199 200 196 209 214 213 234 240 242 247 253 263 269 268 267 262 260 257 257 251 261 268 269 274 269 273 273 282 286 283 280 278
192 190 189 193 192 192 194 198 199 202 206 208 207 202 206 211 211 226 244 240 239 249 256 257 259 261 267 271 267 264 259 260 263 260 266 272 273 271 271 271 273 274 274
194 191 193 197 198 196 198 201 206 205 205 207 204 201 207 208 219 228 235 245 255 254 252 258 262 268 273 278 283 280 273 262 257 262 262 268 275 278 279 283 279 275 271
206 204 197 203 204 202 200 202 207 203 204 207 209 205 208 219 220 226 236 238 236 235 229 238 259 272 282 289 286 284 286 282 262 261 257 257 263 281 290 286 299 304 292
206 205 203 199 198 202 201 203 208 207 204 207 211 208 213 221 223 218 219 222 220 216 222 225 239 258 276 281 283 288 282 267 254 252 262 275 287 278 282 283 285 287 291
205 200 196 200 198 198 206 210 214 220 212 209 209 212 216 222 219 217 217 214 206 208 215 220 237 275 304 301 302 297 276 258 243 243 273 294 291 297 291 289 290 282 273
208 200 195 197 197 199 204 210 218 224 221 215 212 211 215 217 213 214 213 208 209 211 218 238 258 276 293 309 313 289 219 222 227 70 202 234 300 304 310 310 302 292 275
207 205 205 196 200 200 202 207 214 221 222 216 211 210 212 214 212 209 208 207 208 207 216 232 261 316 336 350 19 93 132 111 109 118 93 4 331 330 324 327 320 306 302
201 203 202 199 202 202 204 207 210 214 215 211 207 209 210 210 210 207 210 209 208 210 226 241 248 283 46 92 136 127 116 122 128 127 116 42 359 325 330 329 326 327 328
200 199 197 199 203 207 212 211 212 211 213 211 208 209 211 209 208 211 211 213 208 212 222 232 243 229 128 137 155 148 118 128 138 127 144 133 12 345 337 339 334 331 335
199 197 197 199 206 209 207 202 200 203 208 208 209 211 209 209 211 214 215 216 215 217 223 235 255 258 188 164 174 198 171 179 147 130 145 143 316 326 341 338 334 335 333
199 197 198 200 202 201 201 206 212 209 202 206 217 218 213 209 214 217 217 216 219 222 229 241 255 256 232 204 199 201 204 192 193 176 166 86 15 348 314 312 312 315 322
196 192 194 196 194 197 205 214 213 208 202 206 212 216 215 215 214 214 215 219 220 224 234 236 238 247 248 232 217 217 214 223 216 207 207 201 217 300 305 282 295 304 314
187 187 188 185 191 202 209 210 212 208 201 204 213 215 215 217 215 211 211 215 219 225 231 238 246 251 249 240 222 207 213 222 230 242 245 249 137 119 177 239 282 298 310
Height
1512 1515 1517 1521 1522 1524 1525 1527 1530 1533 1534 1536 1537 1539 1540 1541 1543 1544 1545 1547 1547 1548 1548 1550 1550 1550 1551 1550 1551 1550 1550 1549 1548 1548 1548 1548 1548 1548 1548 1548 1548 1549 1548
1508 1512 1517 1520 1522 1524 1525 1528 1529 1532 1534 1536 1538 1540 1541 1542 1543 1544 1546 1546 1547 1548 1549 1550 1551 1551 1551 1551 1552 1552 1551 1551 1550 1549 1550 1550 1549 1549 1549 1550 1550 1550 1550
1510 1513 1517 1520 1522 1524 1526 1527 1529 1532 1534 1537 1539 1541 1541 1543 1544 1545 1546 1547 1548 1549 1549 1550 1551 1551 1552 1552 1552 1552 1552 1552 1552 1551 1551 1550 1551 1550 1551 1551 1551 1552 1552
1510 1514 1517 1520 1522 1525 1527 1529 1530 1532 1534 1537 1539 1541 1542 1543 1544 1545 1546 1547 1548 1549 1550 1550 1551 1551 1551 1552 1552 1553 1552 1552 1552 1552 1552 1552 1551 1552 1552 1551 1552 1552 1553
1511 1515 1518 1520 1523 1525 1527 1529 1531 1532 1535 1537 1539 1541 1543 1544 1545 1546 1546 1548 1548 1549 1549 1550 1551 1551 1551 1551 1552 1552 1553 1552 1552 1552 1553 1552 1552 1552 1552 1552 1552 1552 1552
1512 1515 1518 1521 1524 1526 1527 1530 1532 1533 1535 1538 1539 1541 1542 1544 1545 1546 1547 1548 1549 1549 1549 1550 1551 1551 1551 1551 1551 1552 1552 1552 1552 1552 1552 1552 1551 1551 1552 1552 1552 1552 1553
1511 1515 1518 1520 1523 1525 1527 1529 1532 1534 1535 1537 1540 1540 1542 1543 1545 1546 1547 1548 1548 1549 1550 1550 1550 1550 1550 1550 1550 1551 1551 1551 1551 1551 1552 1552 1551 1551 1551 1552 1553 1553 1553
1509 1514 1517 1520 1522 1524 1527 1529 1531 1534 1534 1536 1538 1540 1542 1543 1544 1546 1546 1547 1548 1549 1549 1549 1549 1549 1549 1548 1549 1549 1549 1549 1549 1549 1549 1550 1551 1550 1550 1551 1551 1551 1551
1511 1513 1516 1518 1521 1523 1525 1527 1531 1533 1534 1535 1537 1538 1540 1541 1542 1545 1546 1546 1547 1547 1547 1548 1548 1547 1546 1546 1545 1546 1547 1547 1547 1547 1547 1548 1548 1548 1549 1550 1550 1550 1550
1508 1511 1514 1516 1518 1521 1523 1525 1528 1532 1533 1534 1536 1537 1538 1540 1541 1543 1544 1544 1545 1545 1545 1544 1544 1544 1545 1544 1544 1545 1545 1545 1544 1544 1544 1544 1545 1546 1546 1547 1548 1549 1549
1504 1509 1512 1514 1516 1519 1521 1524 1525 1529 1532 1533 1535 1536 1537 1538 1539 1540 1541 1542 1542 1543 1543 1543 1543 1543 1544 1543 1543 1543 1543 1543 1543 1542 1542 1542 1542 1542 1544 1545 1545 1545 1546
1500 1504 1509 1512 1514 1516 1519 1523 1524 1526 1529 1531 1532 1533 1535 1536 1537 1538 1538 1539 1541 1542 1541 1541 1541 1541 1542 1542 1542 1542 1542 1541 1541 1541 1540 1540 1540 1541 1541 1541 1543 1542 1542
1498 1499 1504 1508 1511 1513 1516 1519 1520 1522 1526 1528 1529 1531 1533 1534 1535 1535 1536 1538 1539 1539 1540 1539 1539 1539 1538 1538 1538 1538 1538 1539 1538 1538 1536 1538 1539 1539 1539 1539 1540 1540 1540
1494 1496 1501 1506 1509 1511 1513 1515 1517 1519 1522 1525 1526 1527 1528 1530 1531 1532 1534 1536 1537 1537 1537 1537 1536 1536 1536 1536 1535 1535 1534 1535 1535 1532 1533 1534 1536 1537 1536 1536 1536 1536 1537
1495 1497 1501 1505 1508 1509 1510 1513 1515 1515 1518 1521 1522 1524 1525 1527 1529 1530 1532 1533 1534 1535 1535 1535 1535 1535 1535 1534 1534 1533 1532 1533 1531 1529 1529 1531 1532 1533 1533 1533 1533 1533 1533
1489 1493 1497 1502 1507 1507 1509 1511 1513 1513 1515 1517 1520 1522 1524 1525 1526 1527 1529 1530 1531 1532 1532 1532 1533 1533 1533 1533 1532 1530 1530 1529 1527 1526 1526 1525 1526 1529 1531 1530 1531 1531 1531
1484 1488 1491 1496 1502 1505 1506 1509 1512 1513 1515 1517 1518 1520 1522 1523 1524 1526 1526 1527 1528 1529 1529 1530 1530 1529 1530 1529 1528 1528 1527 1524 1524 1523 1525 1525 1525 1524 1525 1526 1528 1529 1529
1477 1481 1486 1489 1494 1500 1504 1508 1512 1515 1517 1518 1519 1520 1521 1522 1524 1525 1525 1526 1527 1527 1528 1528 1527 1527 1527 1527 1526 1525 1523 1522 1521 1522 1523 1525 1526 1525 1524 1523 1525 1525 1525
1472 1476 1480 1485 1489 1495 1500 1505 1511 1515 1516 1517 1518 1520 1521 1522 1522 1522 1523 1525 1525 1525 1525 1526 1527 1527 1526 1525 1524 1523 1522 1521 1522 1522 1522 1522 1523 1523 1522 1523 1522 1521 1520
1468 1471 1475 1480 1485 1489 1494 1500 1504 1509 1512 1515 1517 1518 1520 1521 1521 1522 1522 1523 1523 1523 1523 1524 1525 1525 1524 1523 1523 1522 1521 1522 1524 1523 1523 1522 1521 1522 1521 1519 1519 1518 1518
1463 1467 1471 1476 1480 1483 1486 1491 1497 1502 1508 1512 1514 1516 1518 1519 1520 1520 1521 1521 1521 1521 1522 1522 1523 1523 1523 1522 1522 1522 1523 1523 1522 1522 1521 1521 1520 1520 1520 1518 1518 1517 1517
1455 1461 1466 1471 1475 1480 1482 1487 1492 1497 1502 1508 1511 1514 1515 1517 1518 1519 1520 1520 1519 1520 1519 1519 1519 1520 1520 1521 1522 1522 1523 1525 1523 1524 1523 1520 1519 1519 1521 1519 1516 1515 1515
1452 1455 1460 1467 1473 1478 1481 1484 1488 1492 1497 1502 1507 1511 1513 1515 1516 1516 1519 1520 1519 1518 1518 1517 1517 1517 1517 1518 1520 1520 1520 1520 1521 1523 1523 1521 1519 1517 1518 1516 1517 1514 1514
1444 1453 1459 1466 1470 1476 1481 1482 1483 1484 1489 1497 1502 1506 1510 1513 1515 1516 1518 1518 1518 1516 1516 1515 1514 1514 1515 1515 1516 1515 1515 1517 1518 1519 1521 1521 1520 1518 1516 1515 1515 1514 1513
1442 1451 1459 1465 1470 1475 1478 1481 1481 1484 1489 1492 1495 1499 1504 1508 1510 1512 1514 1515 1515 1514 1513 1512 1511 1511 1512 1512 1513 1513 1511 1515 1516 1515 1518 1519 1518 1516 1515 1515 1513 1511 1510
1443 1452 1460 1467 1472 1475 1477 1477 1479 1481 1482 1486 1490 1495 1500 1504 1506 1507 1509 1511 1512 1512 1511 1510 1510 1510 1510 1510 1510 1509 1510 1512 1512 1512 1515 1515 1515 1514 1515 1512 1511 1509 1508